Regional Weather Roundup
Issued by NWS

Home | Current Version | Previous Version | Graphics & Text | Print | Product List | Glossary On
Versions: 1 2 3 4 5 6 7 8 9 10 11 12 13 14 15 16 17 18 19 20 21 22 23 24 25 26 27 28 29 30 31 32 33 34 35 36 37 38 39 40 41 42 43 44 45 46 47 48 49 50
000
ASUS43 KOAX 030010
RWRNE

WEATHER ROUNDUP FOR NEBRASKA
NATIONAL WEATHER SERVICE OMAHA NE
700 PM CDT SAT MAY 02 2015

NOTES: SATELLITE DATA IS BEING USED TO AUGMENT CLOUD COVER ABOVE
       12000 FEET.
       "FAIR" INDICATES FEW OR NO CLOUDS BELOW 12,000 FEET WITH NO
       SIGNIFICANT WEATHER AND/OR OBSTRUCTIONS TO VISIBILITY.

  * THESE STATIONS DO NOT REPORT WEATHER SUCH AS RAIN...SNOW OR FOG.

NEZ001>004-019>022-054>056-030100-
NEBRASKA PANHANDLE

CITY           SKY/WX    TMP DP  RH WIND       PRES   REMARKS
SCOTTSBLUFF    MOSUNNY   81  34  18 W8        29.76F
6HR MIN TEMP:  78; 6HR MAX TEMP:  83;

ALLIANCE       MOSUNNY   79  35  20 NW8G21    29.76S
6HR MIN TEMP:  78; 6HR MAX TEMP:  82;

CHADRON        SUNNY     80  29  15 NW13      29.72R
6HR MIN TEMP:  76; 6HR MAX TEMP:  83;

KIMBALL        CLOUDY    68  40  35 S12       29.85S
SIDNEY         PTSUNNY   70  42  36 SW10      29.83F
6HR MIN TEMP:  69; 6HR MAX TEMP:  79;

$$

NEZ057>060-069>072-079>082-030100-
SOUTHWEST NEBRASKA

CITY           SKY/WX    TMP DP  RH WIND       PRES   REMARKS
NORTH PLATTE   PTSUNNY   78  40  25 W10       29.73S
6HR MIN TEMP:  77; 6HR MAX TEMP:  84;

IMPERIAL       CLOUDY    81  36  19 W8        29.77F
6HR MIN TEMP:  79; 6HR MAX TEMP:  85;

LEXINGTON      CLOUDY    81  46  29 SW10      29.73S
MCCOOK         PTSUNNY   84  39  20 SW9       29.74S
6HR MIN TEMP:  82; 6HR MAX TEMP:  89;

OGALLALA       CLOUDY    82  33  16 W7        29.77S
$$

NEZ005>010-023>029-035>040-094-030100-
NORTH CENTRAL NEBRASKA

CITY           SKY/WX    TMP DP  RH WIND       PRES   REMARKS
VALENTINE      PTSUNNY   85  41  21 NW5       29.67
6HR MIN TEMP:  75; 6HR MAX TEMP:  85;

AINSWORTH      MOSUNNY   81  46  28 S7        29.69S
BROKEN BOW     MOSUNNY   85  43  22 SW10      29.70F
6HR MIN TEMP:  78; 6HR MAX TEMP:  89;

O`NEILL        SUNNY     83  49  31 S6        29.70F
ORD            PTSUNNY   84  45  25 SW13G24   29.67S
6HR MIN TEMP:  78; 6HR MAX TEMP:  85;

THEDFORD       SUNNY     85  35  16 W12       29.71F
$$

NEZ041-046>049-061>064-073>077-083>087-030100-
SOUTH CENTRAL NEBRASKA

CITY           SKY/WX    TMP DP  RH WIND       PRES   REMARKS
GRAND ISLAND   SUNNY     84  44  24 S16G22    29.71F
6HR MIN TEMP:  79; 6HR MAX TEMP:  86;

AURORA         SUNNY     83  48  29 S18       29.71F
HASTINGS       SUNNY     83  47  28 S12G25    29.72F
6HR MIN TEMP:  79; 6HR MAX TEMP:  86;

HEBRON         SUNNY     81  49  32 S17       29.76F
HOLDREGE       PTSUNNY   82  41  23 S16       29.74S
KEARNEY *      MOSUNNY   81  46  30 SE17      29.72F
YORK           SUNNY     82  52  34 S21G29    29.72F
$$

NEZ011>018-030>034-042>045-030100-
NORTHEAST NEBRASKA

CITY           SKY/WX    TMP DP  RH WIND       PRES   REMARKS
NORFOLK        MOSUNNY   83  50  31 S5        29.70F
6HR MIN TEMP:  73; 6HR MAX TEMP:  85;

ALBION         MOSUNNY   81  46  29 SW7       29.70F
BLAIR          SUNNY     71  56  59 SE16G22   29.78F
COLUMBUS *     MOSUNNY   81  50  34 S10       29.71F
FREMONT        SUNNY     74  57  55 SE17      29.75F
TEKAMAH        SUNNY     75  56  51 SE16      29.76F
6HR MIN TEMP:  73; 6HR MAX TEMP:  78; 6HR PCP: TRACE;

WAYNE          SUNNY     79  57  45 SE17      29.73F
$$

NEZ050>053-065>068-078-088>093-030100-
SOUTHEAST NEBRASKA

CITY           SKY/WX    TMP DP  RH WIND       PRES   REMARKS
LINCOLN        SUNNY     81  54  39 S18G24    29.74F
6HR MIN TEMP:  69; 6HR MAX TEMP:  84;

OMAHA EPPLEY   SUNNY     72  57  59 SE20      29.79F
6HR MIN TEMP:  66; 6HR MAX TEMP:  73;

BEATRICE       SUNNY     80  54  41 S20G26    29.77F
FALLS CITY     SUNNY     76  51  41 S17G25    29.82F
6HR MIN TEMP:  57; 6HR MAX TEMP:  76; 6HR PCP: TRACE;

NEBRASKA CITY  SUNNY     73  53  50 S13       29.80F
PLATTSMOUTH    SUNNY     71  57  61 SE16G22   29.79F
$$

NEZ044-045-051>053-067-030100-
OMAHA AREA

CITY           SKY/WX    TMP DP  RH WIND       PRES   REMARKS
OMAHA EPPLEY   SUNNY     72  57  59 SE20      29.79F
6HR MIN TEMP:  66; 6HR MAX TEMP:  73;

BLAIR          SUNNY     71  56  59 SE16G22   29.78F
FREMONT        SUNNY     74  57  55 SE17      29.75F
MILLARD        SUNNY     71  59  65 SE16G22   29.77F
OFFUTT AFB     SUNNY     72  58  62 E14       29.78F
PLATTSMOUTH    SUNNY     71  57  61 SE16G22   29.79F
WAHOO          FAIR      75  57  52 SE18      29.74F
$$


USA.gov is the U.S. government's official web portal to all federal, state and local government web resources and services.